{"data":{"norad_id":43005,"intl_designator":"2017-070A","name":"MOHAMMED VI-A","alt_names":[],"object_type":"PAYLOAD","status":"ACTIVE","operator":null,"country":"MA","launch_date":"2017-11-08","launch_site_code":"FRGUI","launch_vehicle":null,"mission":null,"orbit_class":"UNKNOWN","rcs_meters":null,"size_class":null,"mass_kg":null,"dimensions":null,"purposes":[],"wikipedia_slug":null,"has_3d_model":false,"image_url":null,"decayed_at":null,"tle_current":{"epoch":"2026-05-25T04:17:11.820192Z","epoch_age_seconds":55497,"freshness":"FRESH","line1":"1 43005U 17070A   26145.17860903  .00000772  00000+0  11652-3 0  9992","line2":"2 43005  97.9558 217.8254 0001646 102.5699 257.5695 14.77103897460584","mean_motion":14.77103897,"eccentricity":0.0001646,"inclination_deg":97.9558,"raan_deg":217.8254,"arg_perigee_deg":102.5699,"mean_anomaly_deg":257.5695,"bstar":0.00011652,"rev_number":46058,"period_min":97.488064510874,"perigee_km":637.325722289,"apogee_km":639.63559282186,"semimajor_km":7016.6176575554,"source":"CELESTRAK","updated_at":"2026-05-25T13:37:55.753922Z"}}}